Shaw AFB, SC

8:37 PM EDT on March 29, 2017 (GMT -0400)
Shaw Air Force Base

Weather History for KSSC - May, 2013

Change the Weather History Date:

Monday, May 6, 2013

  Actual Average Record
Temperature  
Mean Temperature 64 °F -  
Max Temperature 72 °F 78 °F 92 °F (2014)
Min Temperature 57 °F 56 °F 33 °F (2008)
Degree Days  
Heating Degree Days 1    
Growing Degree Days 14 (Base 50)    
Moisture  
Dew Point 57 °F    
Average Humidity 89    
Maximum Humidity 100    
Minimum Humidity 29    
Precipitation  
Precipitation 0.08 in - - ()
Sea Level Pressure  
Sea Level Pressure 29.84 in    
Wind  
Wind Speed 5 mph (South)    
Max Wind Speed 13 mph    
Max Gust Speed 17 mph    
Visibility 6 miles    
Events Fog , Rain    
Averages and records for this station are not official NWS values.
T = Trace of Precipitation, MM = Missing Value Source: NWS Daily Summary

Daily Weather History Graph

Daily Weather History Graph

Search for Another Location

Airport or City:

Trip Planner

Search our weather history database for the weather conditions in past years. The results will help you decide how hot, cold, wet, or windy it might be!

Date:

Astronomy

May. 06, 2013 Rise Set
Actual Time 6:27 AM EDT 8:09 PM EDT
Civil Twilight 6:00 AM EDT 8:36 PM EDT
Nautical Twilight 5:28 AM EDT 9:09 PM EDT
Astronomical Twilight 4:53 AM EDT 9:43 PM EDT
Moon 4:20 AM EDT (5/6) 5:15 PM EDT (5/6)
Length of Visible Light 14h 36m
Length of Day
13h 41m
Waning Crescent, 11% of the Moon is Illuminated
May 6
Waning Crescent
May 9
New
May 18
First Quarter
May 25
Full
May 31
Last Quarter

Hourly Weather History & Observations

Time (EDT) Temp. Dew Point Humidity Pressure Visibility Wind Dir Wind Speed Gust Speed Precip Events Conditions
12:02 AM 62.6 °F 59.0 °F 88% 29.85 in 10.0 mi SE 5.8 mph - N/A   Overcast
12:14 AM 62.6 °F 59.0 °F 88% 29.85 in 10.0 mi ESE 4.6 mph - N/A   Overcast
12:29 AM 62.6 °F 59.0 °F 88% 29.85 in 10.0 mi East 4.6 mph - N/A   Overcast
12:32 AM 62.6 °F 60.8 °F 94% 29.85 in 9.0 mi ESE 4.6 mph - N/A Rain Light Rain
12:37 AM 62.6 °F 60.8 °F 94% 29.85 in 4.0 mi SE 4.6 mph - N/A Rain Rain
12:47 AM 62.6 °F 60.8 °F 94% 29.85 in 5.0 mi South 5.8 mph - N/A Rain Light Rain
12:52 AM 62.6 °F 60.8 °F 94% 29.85 in 6.0 mi SE 4.6 mph - N/A Rain Light Rain
12:53 AM 62.6 °F 60.8 °F 94% 29.85 in 6.0 mi SE 5.8 mph - N/A Rain Light Rain
12:58 AM 62.2 °F 60.4 °F 94% 29.86 in 6.0 mi SE 8.1 mph - 0.08 in Rain Light Rain
1:03 AM 62.6 °F 60.8 °F 94% 29.84 in 9.0 mi ESE 6.9 mph - N/A Rain Light Rain
1:04 AM 62.6 °F 60.8 °F 94% 29.84 in 10.0 mi ESE 6.9 mph - N/A   Overcast
1:26 AM 62.6 °F 60.8 °F 94% 29.85 in 10.0 mi SE 5.8 mph - N/A Rain Light Rain
1:35 AM 62.6 °F 60.8 °F 94% 29.84 in 10.0 mi SE 6.9 mph - N/A   Overcast
1:40 AM 62.6 °F 60.8 °F 94% 29.84 in 10.0 mi SE 5.8 mph - N/A   Overcast
1:45 AM 62.6 °F 60.8 °F 94% 29.84 in 10.0 mi SE 4.6 mph - N/A   Overcast
1:46 AM 62.6 °F 60.8 °F 94% 29.84 in 10.0 mi SE 4.6 mph - N/A   Overcast
1:56 AM 62.6 °F 60.8 °F 94% 29.84 in 10.0 mi SSE 4.6 mph - N/A   Overcast
1:58 AM 62.6 °F 61.5 °F 96% 29.84 in 10.0 mi SSE 4.6 mph - 0.00 in   Overcast
2:02 AM 62.6 °F 60.8 °F 94% 29.84 in 10.0 mi SSE 3.5 mph - N/A   Overcast
2:17 AM 62.6 °F 62.6 °F 100% 29.83 in 10.0 mi SE 4.6 mph - N/A   Overcast
2:27 AM 62.6 °F 62.6 °F 100% 29.82 in 10.0 mi ESE 3.5 mph - N/A   Overcast
2:58 AM 62.4 °F 61.7 °F 97% 29.82 in 10.0 mi East 4.6 mph - N/A   Overcast
3:23 AM 62.6 °F 62.6 °F 100% 29.82 in 10.0 mi SSE 4.6 mph - N/A   Overcast
3:40 AM 62.6 °F 60.8 °F 94% 29.81 in 10.0 mi ESE 3.5 mph - N/A   Overcast
3:45 AM 62.6 °F 60.8 °F 94% 29.81 in 10.0 mi SE 4.6 mph - N/A   Overcast
3:50 AM 62.6 °F 60.8 °F 94% 29.81 in 10.0 mi SSE 3.5 mph - N/A   Overcast
3:55 AM 60.8 °F 60.8 °F 100% 29.81 in 9.0 mi South 4.6 mph - N/A   Mostly Cloudy
3:58 AM 60.8 °F 60.8 °F 100% 29.81 in 9.0 mi South 3.5 mph - N/A   Mostly Cloudy
4:03 AM 60.8 °F 60.8 °F 100% 29.81 in 9.0 mi South 3.5 mph - N/A   Scattered Clouds
4:08 AM 60.8 °F 60.8 °F 100% 29.81 in 6.0 mi South 2.3 mph - N/A   Partly Cloudy
4:13 AM 60.8 °F 59.0 °F 94% 29.82 in 2.0 mi SW 4.6 mph - N/A   Partly Cloudy
4:18 AM 59.0 °F 59.0 °F 100% 29.82 in 0.8 mi SSW 6.9 mph - N/A   Clear
4:23 AM 59.0 °F 59.0 °F 100% 29.82 in 1.0 mi South 4.6 mph - N/A   Clear
4:28 AM 59.0 °F 59.0 °F 100% 29.82 in 3.0 mi South 4.6 mph - N/A   Clear
4:33 AM 60.8 °F 60.8 °F 100% 29.81 in 6.0 mi SSE 3.5 mph - N/A   Clear
4:38 AM 60.8 °F 60.8 °F 100% 29.81 in 9.0 mi SE 2.3 mph - N/A   Clear
4:43 AM 60.8 °F 59.0 °F 94% 29.82 in 2.5 mi ESE 3.5 mph - N/A   Clear
4:48 AM 59.0 °F 59.0 °F 100% 29.82 in 1.2 mi ESE 3.5 mph - N/A   Clear
4:53 AM 59.0 °F 59.0 °F 100% 29.82 in 0.8 mi SE 2.3 mph - N/A   Clear
4:58 AM 57.7 °F 57.4 °F 99% 29.83 in 0.8 mi SSE 2.3 mph - N/A   Clear
5:03 AM 57.2 °F 57.2 °F 100% 29.82 in 0.5 mi South 2.3 mph - N/A Fog Fog
5:13 AM 59.0 °F 59.0 °F 100% 29.82 in 0.5 mi SSW 3.5 mph - N/A Fog Fog
5:18 AM 59.0 °F 57.2 °F 94% 29.82 in 0.5 mi South 3.5 mph - N/A Fog Fog
5:32 AM 57.2 °F 57.2 °F 100% 29.83 in 0.5 mi South 3.5 mph - N/A Fog Fog
5:37 AM 59.0 °F 57.2 °F 94% 29.83 in 0.8 mi South 3.5 mph - N/A   Mist
5:42 AM 59.0 °F 59.0 °F 100% 29.83 in 0.8 mi South 2.3 mph - N/A   Mist
5:47 AM 59.0 °F 59.0 °F 100% 29.83 in 1.2 mi South 2.3 mph - N/A   Mostly Cloudy
5:52 AM 59.0 °F 59.0 °F 100% 29.83 in 2.5 mi South 3.5 mph - N/A   Mostly Cloudy
5:57 AM 59.0 °F 59.0 °F 100% 29.83 in 5.0 mi South 3.5 mph - N/A   Overcast
5:58 AM 59.7 °F 59.7 °F 100% 29.83 in 5.0 mi South 3.5 mph - N/A   Overcast
6:03 AM 60.8 °F 60.8 °F 100% 29.83 in 8.0 mi South 5.8 mph - N/A   Overcast
6:08 AM 60.8 °F 60.8 °F 100% 29.83 in 6.0 mi South 5.8 mph - N/A   Overcast
6:13 AM 59.0 °F 59.0 °F 100% 29.83 in 2.5 mi South 3.5 mph - N/A   Overcast
6:18 AM 59.0 °F 59.0 °F 100% 29.83 in 1.2 mi South 4.6 mph - N/A   Overcast
6:23 AM 59.0 °F 59.0 °F 100% 29.83 in 0.5 mi South 3.5 mph - N/A Fog Fog
6:28 AM 59.0 °F 59.0 °F 100% 29.83 in 0.5 mi SSE 2.3 mph - N/A Fog Fog
6:33 AM 59.0 °F 59.0 °F 100% 29.84 in 0.5 mi SSE 4.6 mph - N/A Fog Fog
6:38 AM 59.0 °F 59.0 °F 100% 29.84 in 0.2 mi South 3.5 mph - N/A Fog Fog
6:58 AM 59.0 °F 59.0 °F 100% 29.86 in 0.2 mi SSE 3.5 mph - N/A Fog Fog
7:03 AM 59.0 °F 59.0 °F 100% 29.85 in 0.5 mi SSE 3.5 mph - N/A Fog Fog
7:08 AM 59.0 °F 59.0 °F 100% 29.85 in 0.5 mi SSE 3.5 mph - N/A Fog Fog
7:13 AM 59.0 °F 59.0 °F 100% 29.85 in 0.5 mi South 2.3 mph - N/A Fog Fog
7:18 AM 59.0 °F 59.0 °F 100% 29.85 in 1.5 mi SSE 3.5 mph - N/A   Overcast
7:23 AM 59.0 °F 59.0 °F 100% 29.86 in 0.8 mi SSE 3.5 mph - N/A   Overcast
7:33 AM 59.0 °F 59.0 °F 100% 29.86 in 1.5 mi South 3.5 mph - N/A   Overcast
7:38 AM 59.0 °F 59.0 °F 100% 29.86 in 1.8 mi SSE 2.3 mph - N/A   Mostly Cloudy
7:43 AM 59.0 °F 59.0 °F 100% 29.86 in 3.0 mi SSE 3.5 mph - N/A   Mostly Cloudy
7:58 AM 59.5 °F 59.5 °F 100% 29.86 in 5.0 mi South 4.6 mph - N/A   Mostly Cloudy
8:17 AM 59.0 °F 59.0 °F 100% 29.86 in 6.0 mi SSW 5.8 mph - N/A   Mostly Cloudy
8:31 AM 59.0 °F 59.0 °F 100% 29.87 in 10.0 mi SSW 2.3 mph - N/A   Mostly Cloudy
8:58 AM 60.1 °F 60.1 °F 100% 29.88 in 10.0 mi South 3.5 mph - N/A   Scattered Clouds
9:36 AM 62.6 °F 62.6 °F 100% 29.87 in 10.0 mi SSE 4.6 mph - N/A   Mostly Cloudy
9:58 AM 62.4 °F 57.6 °F 84% 29.88 in 10.0 mi Variable 2.3 mph - N/A   Mostly Cloudy
10:21 AM 64.4 °F 53.6 °F 68% 29.87 in 10.0 mi WSW 3.5 mph - N/A   Mostly Cloudy
10:58 AM 65.7 °F 52.7 °F 63% 29.89 in 10.0 mi SW 8.1 mph - N/A   Mostly Cloudy
11:58 AM 67.5 °F 53.2 °F 60% 29.91 in 10.0 mi SW 12.7 mph - N/A   Scattered Clouds
12:58 PM 68.2 °F 46.0 °F 45% 29.88 in 10.0 mi SW 10.4 mph - N/A   Partly Cloudy
1:58 PM 69.6 °F 47.7 °F 45% 29.87 in 10.0 mi SSW 9.2 mph - N/A   Partly Cloudy
2:58 PM 70.7 °F 45.7 °F 41% 29.85 in 10.0 mi SSW 11.5 mph 16.1 mph N/A   Partly Cloudy
3:58 PM 71.4 °F 44.2 °F 38% 29.84 in 10.0 mi West 8.1 mph - N/A   Scattered Clouds
4:58 PM 71.1 °F 43.0 °F 36% 29.83 in 10.0 mi SSW 11.5 mph 17.3 mph N/A   Partly Cloudy
5:58 PM 71.6 °F 37.9 °F 29% 29.84 in 10.0 mi WSW 10.4 mph - N/A   Partly Cloudy
6:58 PM 68.2 °F 43.5 °F 41% 29.86 in 10.0 mi SW 6.9 mph - N/A   Partly Cloudy
7:58 PM 64.6 °F 44.2 °F 48% 29.86 in 10.0 mi WSW 8.1 mph - N/A   Clear
8:58 PM 61.7 °F 45.1 °F 55% 29.88 in 10.0 mi WSW 6.9 mph - N/A   Clear
9:58 PM 60.1 °F 46.0 °F 60% 29.91 in 10.0 mi West 6.9 mph - N/A   Partly Cloudy
10:58 PM 59.7 °F 45.1 °F 59% 29.91 in 10.0 mi West 8.1 mph - N/A   Partly Cloudy
11:58 PM 58.1 °F 45.3 °F 62% 29.91 in 10.0 mi West 6.9 mph - N/A   Mostly Cloudy